[[{"header":{"parameterUnit":"m.s-1","parameterCategory":1,"la1":30.2991,"la2":30.254,"lo1":-89.0895,"lo2":-89.0444,"dy":0.0017,"dx":0.0017,"nx":28,"ny":28,"refTime":"2023-09-03T21:00:00:Z","depth":0,"parameterNumber":2,"parameterNumberName":"U-component_of_WINDS"},"data":[0,0,0,0,0,0,0,0,0,0,0,0,0,0,0,0,0,0,0,0,0,0,0,0,0,0,0,0,0,0,0,0,0,0,0,0,0,0,0,0,0,0,0,0,0,0,0,0,0,0,0,0,0,0,0,0,0,0,-4.032,-4.0321,0,-4.0485,-4.0487,-4.0489,-4.0519,-4.0518,-4.0516,-4.0515,-4.0685,-4.0691,-4.0697,0,0,0,0,0,0,0,0,0,0,0,0,0,-4.0032,-4.0037,-4.0319,-4.0322,-4.0324,-4.0485,-4.0487,-4.049,-4.0519,-4.0518,-4.0516,-4.0514,-4.0684,-4.069,-4.0697,0,0,0,0,0,0,0,0,0,0,0,0,0,-4.0173,-4.0039,-4.0319,-4.0358,-4.0363,-4.0485,-4.0487,-4.049,-4.052,-4.0518,-4.0516,-4.0514,-4.0681,-4.069,-4.0698,-4.0793,0,0,-4.0725,-4.0729,0,0,0,0,0,0,0,0,-4.0165,-4.0183,-4.035,-4.0355,-4.0361,-4.0479,-4.0448,-4.0592,-4.052,-4.046,-4.0515,-4.0513,-4.0619,-4.0632,-4.0668,-4.0801,-4.0808,-4.0726,-4.0731,-4.0735,-4.0737,0,0,0,0,0,0,0,-4.0155,-4.0177,-4.0385,-4.0353,-4.0359,-4.0368,-4.0386,-4.0476,-4.0549,-4.0465,-4.0468,-4.0487,-4.0621,-4.0659,-4.0672,-4.0811,-4.0725,-4.0733,-4.0739,-4.0742,-4.1032,-4.1034,0,0,0,0,0,0,-4.0138,-4.0168,-4.038,-4.039,-4.0256,-4.0375,-4.0395,-4.0444,-4.0548,-4.0562,-4.0489,-4.0488,-4.0646,-4.0662,-4.0678,-4.0797,-4.0735,-4.0743,-4.0748,-4.103,-4.1033,-4.1035,0,0,0,0,0,0,-4.0132,-4.0157,-4.0373,-4.028,-4.0308,-4.0382,-4.0437,-4.0448,-4.0486,-4.0566,-4.0579,-4.0514,-4.0645,-4.0666,-4.0765,-4.0803,-4.0747,-4.0755,-4.1027,-4.103,-4.1034,-4.1033,0,0,0,0,0,0,-4.0123,-4.0154,-4.019,-4.0281,-4.0313,-4.0456,-4.0439,-4.0453,-4.0501,-4.0501,-4.0593,-4.0606,-4.0645,-4.0751,-4.0773,-4.0814,-4.0762,-4.1024,-4.1028,-4.1033,-4.103,-4.1036,-4.1042,0,0,0,0,0,-4.0113,-4.0183,-4.0192,-4.0217,-4.0359,-4.0458,-4.0477,-4.0519,-4.0504,-4.0541,-4.0593,-4.0603,-4.0796,-4.0761,-4.0786,-4.083,-4.1021,-4.1027,-4.1032,-4.1027,-4.1035,-4.1042,0,0,0,0,0,0,-4.0095,-4.0196,-4.0206,-4.0307,-4.0374,-4.0463,-4.0511,-4.0526,-4.0598,-4.0596,-4.0646,-4.0667,-4.0763,-4.0807,-4.0767,-4.0928,-4.0908,-4.0918,-4.0895,-4.0903,-4.0909,-4.0896,-4.0769,0,0,0,0,0,-4.0103,-4.0174,-4.0258,-4.034,-4.0373,-4.0436,-4.0481,-4.0508,-4.0579,-4.0607,-4.0666,-4.0735,-4.0811,-4.086,-4.0934,-4.1038,-4.1058,-4.108,-4.1086,-4.109,-4.1099,-4.1158,-4.1168,-4.1054,-4.1054,-4.1053,0,0,-4.012,-4.0183,-4.0225,-4.0338,-4.0392,-4.0466,-4.0459,-4.0537,-4.0592,-4.0619,-4.0715,-4.0762,-4.0842,-4.0943,-4.0991,-4.0983,-4.1136,-4.1098,-4.11,-4.1106,-4.1164,-4.1175,-4.1185,-4.1057,-4.1057,-4.1056,0,0,-4.0187,-4.0243,-4.0317,-4.0372,-4.0455,-4.0498,-4.0515,-4.0603,-4.0634,-4.0732,-4.0755,-4.0822,-4.0952,-4.1008,-4.1054,-4.1147,-4.1159,-4.117,-4.12,-4.1256,-4.1265,-4.1274,-4.1307,-4.1318,-4.1178,-4.1178,-4.1178,0,-4.0197,-4.0308,-4.0353,-4.043,-4.0479,-4.0508,-4.0585,-4.0636,-4.074,-4.0774,-4.0763,-4.0928,-4.0984,-4.11,-4.1123,-4.1159,-4.1182,-4.1158,-4.126,-4.1269,-4.1278,-4.1309,-4.1322,-4.1179,-4.1179,-4.1179,-4.1179,0,-4.0317,-4.0393,-4.0443,-4.0542,-4.0598,-4.0674,-4.0732,-4.0783,-4.0806,-4.085,-4.095,-4.1019,-4.1109,-4.1139,-4.1162,-4.1259,-4.1251,-4.125,-4.123,-4.1288,-4.1319,-4.1332,-4.118,-4.1179,-4.1179,-4.1179,0,0,-4.0375,-4.05,-4.0517,-4.0563,-4.0658,-4.0719,-4.0797,-4.0885,-4.0928,-4.0999,-4.1066,-4.1177,-4.1178,-4.123,-4.1261,-4.1311,-4.138,-4.1304,-4.1307,-4.1315,-4.1491,-4.149,-4.1503,-4.139,-4.1392,-4.1394,-4.1484,0,-4.0453,-4.0593,-4.0637,-4.0754,-4.0826,-4.0856,-4.0925,-4.0991,-4.1035,-4.1103,-4.1152,-4.123,-4.1224,-4.1256,-4.1307,-4.136,-4.1415,-4.1355,-4.1453,-4.1456,-4.143,-4.1519,-4.1518,-4.1599,-4.1496,-4.1498,-4.15,0,-4.0563,-4.0636,-4.076,-4.0847,-4.0879,-4.094,-4.1025,-4.1089,-4.1166,-4.1195,-4.1254,-4.1282,-4.1366,-4.1343,-4.146,-4.1418,-4.1462,-4.1494,-4.1499,-4.1508,-4.148,-4.153,-4.1626,-4.1637,-4.1519,-4.1518,-4.1516,0,-4.0592,-4.0722,-4.0813,-4.0852,-4.0956,-4.0998,-4.1044,-4.1119,-4.1169,-4.1244,-4.1278,-4.1361,-4.1407,-4.1472,-4.1521,-4.15,-4.1635,-4.1616,-4.1661,-4.166,-4.1686,-4.1684,-4.1789,-4.1716,-4.1716,-4.1716,-4.1715,0,-4.0674,-4.0749,-4.0828,-4.0884,-4.0969,-4.1021,-4.1104,-4.1151,-4.1218,-4.1285,-4.1317,-4.1379,-4.1441,-4.1512,-4.1552,-4.1643,-4.1664,-4.169,-4.1699,-4.1686,-4.1683,-4.1714,-4.1709,-4.1719,-4.1718,-4.1718,-4.1717,0,-4.0721,-4.0777,-4.0878,-4.0969,-4.0994,-4.1053,-4.1132,-4.1188,-4.1234,-4.1318,-4.1341,-4.1413,-4.1498,-4.1555,-4.1664,-4.1691,-4.179,-4.1799,-4.1764,-4.1768,-4.181,-4.1805,-4.1938,-4.1958,-4.1872,-4.1873,-4.1874,0,-4.0769,-4.0827,-4.0925,-4.0972,-4.1017,-4.1092,-4.1144,-4.1198,-4.1251,-4.1344,-4.1389,-4.1477,-4.1549,-4.1684,-4.1747,-4.1831,-4.1841,-4.1882,-4.1854,-4.1839,-4.1841,-4.1837,-4.1843,-4.1886,-4.1887,-4.1887,-4.1888,0,-4.0848,-4.0874,-4.0947,-4.103,-4.1091,-4.116,-4.1228,-4.1265,-4.1331,-4.1389,-4.1477,-4.1533,-4.1645,-4.1731,-4.1821,-4.187,-4.189,-4.1896,-4.1911,-4.1898,-4.1875,-4.1888,-4.1775,-4.1893,-4.1892,-4.1892,-4.1891,-4.1891,-4.0897,-4.095,-4.1028,-4.1109,-4.1166,-4.123,-4.1288,-4.1341,-4.1415,-4.1509,-4.1538,-4.1629,-4.1706,-4.183,-4.188,-4.1953,-4.1948,-4.197,-4.1975,-4.1979,-4.1979,-4.1864,-4.1969,-4.1969,-4.1969,-4.1969,-4.1969,0,-4.0978,-4.1029,-4.1103,-4.1198,-4.1263,-4.1277,-4.1354,-4.1407,-4.1486,-4.1557,-4.1628,-4.1729,-4.1814,-4.1884,-4.1972,-4.2017,-4.2029,-4.2038,-4.2035,-4.2046,-4.1978,-4.1956,-4.2027,-4.2027,-4.2027,-4.2027,-4.2027,-4.2027,-4.1027,-4.1118,-4.1153,-4.1274,-4.1326,-4.1415,-4.1458,-4.1518,-4.1574,-4.1685,-4.1756,-4.1801,-4.1872,-4.1966,-4.2045,-4.2063,-4.2094,-4.2101,-4.2122,-4.2057,-4.205,-4.2044,-4.2024,-4.2108,-4.2108,-4.2184,-4.2184,-4.2185]},{"header":{"parameterUnit":"m.s-1","parameterCategory":1,"la1":30.2991,"la2":30.254,"lo1":-89.0895,"lo2":-89.0444,"dy":0.0017,"dx":0.0017,"nx":28,"ny":28,"refTime":"2023-09-03T21:00:00:Z","depth":0,"parameterNumber":3,"parameterNumberName":"V-component_of_WINDS"},"data":[0,0,0,0,0,0,0,0,0,0,0,0,0,0,0,0,0,0,0,0,0,0,0,0,0,0,0,0,0,0,0,0,0,0,0,0,0,0,0,0,0,0,0,0,0,0,0,0,0,0,0,0,0,0,0,0,0,0,4.1349,4.1349,0,4.1299,4.1298,4.1298,4.1246,4.1246,4.1245,4.1244,4.1189,4.1189,4.1188,0,0,0,0,0,0,0,0,0,0,0,0,0,4.14,4.14,4.1349,4.1349,4.1348,4.1299,4.1298,4.1297,4.1246,4.1246,4.1245,4.1244,4.119,4.1189,4.1188,0,0,0,0,0,0,0,0,0,0,0,0,0,4.1367,4.1399,4.1349,4.1317,4.1313,4.1299,4.1298,4.1297,4.1247,4.1246,4.1245,4.1244,4.119,4.1189,4.1188,4.12,0,0,4.1184,4.1183,0,0,0,0,0,0,0,0,4.1369,4.1365,4.1322,4.1319,4.1315,4.1278,4.1296,4.1265,4.1247,4.1272,4.1244,4.1243,4.1219,4.1216,4.1208,4.1198,4.1195,4.1184,4.1183,4.1182,4.1182,0,0,0,0,0,0,0,4.1371,4.1367,4.1329,4.1322,4.1317,4.1304,4.1298,4.129,4.1252,4.127,4.1266,4.1261,4.1217,4.121,4.1207,4.1195,4.1184,4.1183,4.1182,4.1181,4.1194,4.1195,0,0,0,0,0,0,4.1379,4.1369,4.1331,4.1328,4.134,4.1304,4.1298,4.1291,4.1252,4.1245,4.1262,4.1258,4.1212,4.1208,4.1205,4.1217,4.1182,4.1181,4.1181,4.1193,4.1194,4.1195,0,0,0,0,0,0,4.138,4.1376,4.1333,4.1347,4.1341,4.1304,4.1297,4.129,4.1283,4.1246,4.1239,4.1261,4.1211,4.1206,4.1202,4.1215,4.1181,4.118,4.1192,4.1193,4.1195,4.1243,0,0,0,0,0,0,4.1382,4.1377,4.1381,4.1348,4.134,4.1332,4.1298,4.129,4.1281,4.1276,4.1243,4.1237,4.121,4.1205,4.1201,4.1212,4.1179,4.119,4.1192,4.1194,4.124,4.1246,4.1252,0,0,0,0,0,4.1384,4.1395,4.1381,4.1377,4.1345,4.1333,4.1328,4.1298,4.1282,4.1286,4.1263,4.1238,4.1215,4.1205,4.12,4.1211,4.1189,4.1192,4.1194,4.1238,4.1245,4.1251,0,0,0,0,0,0,4.1429,4.139,4.1374,4.1376,4.1358,4.1324,4.1328,4.1307,4.1292,4.1288,4.1251,4.1244,4.1245,4.1228,4.1217,4.1223,4.1199,4.12,4.1233,4.124,4.1245,4.1248,4.1178,0,0,0,0,0,4.144,4.1433,4.14,4.1404,4.1396,4.1364,4.1357,4.1337,4.1316,4.1308,4.1284,4.1265,4.1253,4.1246,4.1233,4.1239,4.1231,4.1245,4.125,4.1255,4.1256,4.1259,4.1265,4.1203,4.1203,4.1203,0,0,4.146,4.1439,4.1436,4.1413,4.1396,4.139,4.1358,4.1352,4.1347,4.1306,4.1301,4.1284,4.126,4.1262,4.1261,4.1247,4.1272,4.1258,4.1262,4.1261,4.1262,4.1268,4.1273,4.1205,4.1205,4.1205,0,0,4.1495,4.1478,4.148,4.1466,4.1442,4.1421,4.1423,4.1392,4.138,4.1375,4.1345,4.1338,4.1319,4.1304,4.1293,4.1327,4.1302,4.1324,4.1351,4.1355,4.136,4.1364,4.1375,4.138,4.1325,4.1326,4.1326,0,4.1523,4.1513,4.1484,4.1481,4.1472,4.1438,4.144,4.1427,4.14,4.1394,4.1381,4.1358,4.1339,4.1337,4.1345,4.1338,4.1338,4.1326,4.1362,4.1365,4.1369,4.1379,4.1384,4.1328,4.1328,4.1328,4.1327,0,4.1549,4.1543,4.1548,4.1525,4.1516,4.1516,4.1487,4.1483,4.1464,4.1444,4.1441,4.1418,4.1401,4.1399,4.138,4.1395,4.1388,4.1369,4.1343,4.1378,4.1387,4.1391,4.1332,4.1331,4.133,4.133,0,0,4.1606,4.1571,4.1573,4.1563,4.1536,4.1531,4.153,4.1515,4.1511,4.1495,4.1493,4.148,4.1463,4.1451,4.143,4.1434,4.1462,4.1414,4.1413,4.1423,4.1477,4.1491,4.1496,4.1447,4.1448,4.1449,4.1479,0,4.1635,4.1632,4.1607,4.1611,4.1605,4.1574,4.1574,4.1558,4.1541,4.1533,4.1515,4.1505,4.1484,4.1477,4.1479,4.1458,4.1472,4.1456,4.1444,4.1444,4.1449,4.1501,4.1514,4.1544,4.1483,4.1483,4.1484,0,4.1667,4.1655,4.1659,4.1635,4.1631,4.1631,4.1616,4.161,4.1592,4.158,4.1569,4.1546,4.1544,4.1523,4.1519,4.1508,4.1503,4.1492,4.1493,4.1489,4.1464,4.1497,4.1553,4.1557,4.1489,4.1489,4.1488,0,4.1708,4.1693,4.1694,4.1686,4.1658,4.1659,4.1647,4.1628,4.1621,4.1609,4.1604,4.1591,4.1584,4.1575,4.155,4.1536,4.1549,4.1525,4.1538,4.1539,4.1539,4.1539,4.1594,4.1539,4.1539,4.1539,4.1539,0,4.1742,4.1745,4.1712,4.1712,4.1715,4.1688,4.1691,4.1677,4.1661,4.1658,4.1631,4.1628,4.1596,4.159,4.1571,4.1571,4.1568,4.1558,4.1552,4.1559,4.156,4.1553,4.1549,4.154,4.154,4.154,4.154,0,4.1786,4.1765,4.1763,4.1738,4.1732,4.1735,4.1714,4.1713,4.1696,4.1692,4.169,4.1663,4.1655,4.163,4.1615,4.1602,4.1608,4.1598,4.1614,4.161,4.1624,4.1623,4.1674,4.168,4.1623,4.1624,4.1624,0,4.1808,4.181,4.1787,4.1783,4.1773,4.1768,4.1762,4.1736,4.1731,4.1712,4.1714,4.1704,4.1694,4.1683,4.1662,4.1651,4.164,4.1659,4.1638,4.1646,4.1639,4.1639,4.1639,4.1663,4.1664,4.1664,4.1665,0,4.1849,4.1839,4.1832,4.1821,4.1815,4.1805,4.1794,4.1793,4.1765,4.176,4.1752,4.1745,4.1732,4.1722,4.1709,4.1696,4.1676,4.1673,4.1675,4.168,4.1689,4.1684,4.1625,4.167,4.167,4.1669,4.1669,4.1669,4.1882,4.1883,4.1867,4.186,4.185,4.1841,4.1839,4.1824,4.1817,4.1804,4.179,4.1785,4.1769,4.1749,4.1738,4.1733,4.1722,4.1725,4.1726,4.1727,4.173,4.1692,4.1731,4.1731,4.1731,4.173,4.173,0,4.1921,4.191,4.1905,4.1891,4.1886,4.187,4.1857,4.1854,4.1849,4.1837,4.1829,4.1821,4.1813,4.1793,4.1783,4.1783,4.1773,4.1781,4.1779,4.1777,4.1741,4.1739,4.1789,4.1789,4.1789,4.1789,4.1789,4.1789,4.194,4.1941,4.193,4.1926,4.1915,4.191,4.1904,4.1896,4.1886,4.1879,4.1873,4.186,4.1845,4.1834,4.1826,4.1821,4.1818,4.1828,4.1819,4.1785,4.1779,4.1774,4.1772,4.1828,4.1828,4.1856,4.1856,4.1856]}]]